,

(GMT )
Ovar Mil

Weather History for LPOV - June, 2012

Change the Weather History Date:

Tuesday, June 26, 2012

  Actual Average Record
Temperature  
Mean Temperature 73 °F -  
Max Temperature 86 °F - - ()
Min Temperature 60 °F - - ()
Cooling Degree Days 8    
Growing Degree Days 23 (Base 50)    
Moisture  
Dew Point 62 °F    
Average Humidity 74    
Maximum Humidity 94    
Minimum Humidity 48    
Precipitation  
Precipitation 0.00 in - - ()
Sea Level Pressure  
Sea Level Pressure 30.00 in    
Wind  
Wind Speed 3 mph ()    
Max Wind Speed 9 mph    
Max Gust Speed 30 mph    
Visibility 5.3 miles    
Events      
T = Trace of Precipitation, MM = Missing Value Source: Averaged Metar Reports

Daily Weather History Graph

Daily Weather History Graph

Search for Another Location

Airport or City:

Trip Planner

Search our weather history database for the weather conditions in past years. The results will help you decide how hot, cold, wet, or windy it might be!

Date:

Astronomy

Jun. 26, 2012 Rise Set
Actual Time 6:04 AM WEST 9:10 PM WEST
Civil Twilight 5:30 AM WEST 9:44 PM WEST
Nautical Twilight 4:48 AM WEST 10:26 PM WEST
Astronomical Twilight 3:57 AM WEST 11:17 PM WEST
Moon 1:09 PM WEST (6/26) 12:28 AM WEST (6/26)
Length of Visible Light 16h 13m
Length of Day
15h 06m
Waxing Crescent, 42% of the Moon is Illuminated
Jun 26
Waxing Crescent
Jun 27
First Quarter
Jul 3
Full
Jul 11
Last Quarter
Jul 19
New

Hourly Weather History & Observations

Time (WEST) Temp. Heat Index Dew Point Humidity Pressure Visibility Wind Dir Wind Speed Gust Speed Precip Events Conditions
12:00 AM 60.8 °F - 57.2 °F 88% 30.01 in - South 4.6 mph - N/A   Clear
1:00 AM 60.8 °F - 59.0 °F 94% 30.04 in - South 2.3 mph - N/A   Clear
2:00 AM 60.8 °F - 59.0 °F 94% 30.01 in - Calm Calm - N/A   Clear
3:00 AM 60.8 °F - 59.0 °F 94% 30.01 in - Calm Calm - N/A   Clear
4:00 AM 62.6 °F - 60.8 °F 94% 30.01 in - Calm Calm - N/A   Clear
5:00 AM 60.8 °F - 59.0 °F 94% 30.01 in - Calm Calm - N/A   Clear
6:00 AM 60.8 °F - 59.0 °F 94% 30.01 in 5.0 mi Calm Calm - N/A   Unknown
7:00 AM 60.8 °F - 59.0 °F 94% 30.01 in 5.0 mi North 2.3 mph - N/A   Unknown
8:00 AM 64.4 °F - 60.8 °F 88% 30.01 in - North 3.5 mph - N/A   Clear
10:00 AM 69.8 °F - 62.6 °F 78% 30.04 in 5.0 mi WNW 4.6 mph - N/A   Unknown
11:00 AM 75.2 °F - 66.2 °F 73% 30.01 in 5.0 mi Variable 2.3 mph - N/A   Unknown
12:00 PM 77.0 °F - 64.4 °F 65% 30.01 in - NNW 3.5 mph - N/A   Clear
1:00 PM 80.6 °F 82.7 °F 66.2 °F 61% 30.01 in - North 4.6 mph - N/A   Clear
2:00 PM 80.6 °F 82.3 °F 64.4 °F 58% 29.98 in - NNW 5.8 mph - N/A   Clear
3:00 PM 78.8 °F - 62.6 °F 57% 30.01 in 5.6 mi West 9.2 mph 29.9 mph N/A   Scattered Clouds
4:00 PM 82.4 °F 83.4 °F 62.6 °F 51% 30.01 in 6.2 mi North 3.5 mph - N/A   Partly Cloudy
5:00 PM 86.0 °F 87.3 °F 64.4 °F 48% 29.98 in - NE 5.8 mph - N/A   Clear
6:00 PM 86.0 °F 87.3 °F 64.4 °F 48% 29.98 in 5.6 mi NNW 6.9 mph - N/A   Unknown
7:00 PM 80.6 °F 82.3 °F 64.4 °F 58% 29.98 in 5.6 mi North 5.8 mph - N/A   Unknown
8:00 PM 77.0 °F - 64.4 °F 65% 29.95 in 5.6 mi North 3.5 mph - N/A   Unknown
9:00 PM 77.0 °F - 66.2 °F 69% 29.95 in 5.6 mi NNE 2.3 mph - N/A   Unknown
10:00 PM 75.2 °F - 64.4 °F 69% 29.95 in 5.0 mi Variable 2.3 mph - N/A   Unknown
11:00 PM 73.4 °F - 64.4 °F 73% 29.95 in 5.0 mi NNE 3.5 mph - N/A   Unknown